This is the latest recevied weather packets stored in our database for station/object KQ4OSL. If no packets are shown the sender has not sent any weather packets the latest 1 day(s).
| Time | Temp. | Humidity | Pressure | Rain* | Wind** | Luminosity | Snow |
|---|---|---|---|---|---|---|---|
| 1778054472 | 18.33° C | 89% | 1014.3 hPa | 0 mm | 1.79 m/s, 247° | 0 W/m² | - |
| 1778054170 | 18.33° C | 89% | 1014.5 hPa | 0 mm | 1.79 m/s, 275° | 0 W/m² | - |
| 1778053866 | 18.33° C | 88% | 1014.6 hPa | 0 mm | 0.89 m/s, 261° | 0 W/m² | - |
| 1778053564 | 18.33° C | 88% | 1014.3 hPa | 0 mm | 0.89 m/s, 245° | 0 W/m² | - |
| 1778053261 | 18.33° C | 87% | 1014.8 hPa | 0 mm | 1.34 m/s, 251° | 0 W/m² | - |
| 1778052958 | 18.33° C | 87% | 1014.7 hPa | 0 mm | 0.45 m/s, 258° | 0 W/m² | - |
| 1778052655 | 18.33° C | 87% | 1014.7 hPa | 0 mm | 2.24 m/s, 261° | 0 W/m² | - |
| 1778052352 | 18.33° C | 86% | 1014.6 hPa | 0 mm | 0.89 m/s, 223° | 0 W/m² | - |
| 1778052050 | 18.33° C | 86% | 1014.5 hPa | 0 mm | 1.79 m/s, 255° | 0 W/m² | - |
| 1778051748 | 18.33° C | 85% | 1014.3 hPa | 0 mm | 0.89 m/s, 253° | 0 W/m² | - |
| 1778051445 | 18.89° C | 85% | 1014.7 hPa | 0 mm | 1.34 m/s, 249° | 0 W/m² | - |
| 1778051142 | 18.89° C | 84% | 1014.6 hPa | 0 mm | 2.68 m/s, 254° | 0 W/m² | - |
| 1778050839 | 18.89° C | 84% | 1014.8 hPa | 0 mm | 0.89 m/s, 259° | 0 W/m² | - |
| 1778050537 | 18.89° C | 84% | 1014.8 hPa | 0 mm | 2.68 m/s, 249° | 0 W/m² | - |
| 1778050233 | 18.89° C | 84% | 1014.9 hPa | 0 mm | 0.89 m/s, 262° | 0 W/m² | - |
| 1778049930 | 18.89° C | 83% | 1015 hPa | 0 mm | 1.34 m/s, 249° | 0 W/m² | - |
| 1778049626 | 18.89° C | 84% | 1015.2 hPa | 0 mm | 1.34 m/s, 266° | 0 W/m² | - |
| 1778049324 | 18.89° C | 83% | 1015 hPa | 0 mm | 1.79 m/s, 267° | 0 W/m² | - |
| 1778049021 | 18.89° C | 83% | 1015.3 hPa | 0 mm | 1.79 m/s, 249° | 0 W/m² | - |
| 1778048719 | 18.89° C | 83% | 1015 hPa | 0 mm | 1.79 m/s, 260° | 0 W/m² | - |
| 1778048416 | 18.89° C | 82% | 1015.1 hPa | 0 mm | 1.79 m/s, 256° | 0 W/m² | - |
| 1778048112 | 18.89° C | 82% | 1015.2 hPa | 0 mm | 1.79 m/s, 197° | 0 W/m² | - |
| 1778047810 | 19.44° C | 81% | 1015.2 hPa | 0 mm | 1.34 m/s, 254° | 0 W/m² | - |
| 1778047508 | 19.44° C | 81% | 1015.3 hPa | 0 mm | 2.24 m/s, 286° | 0 W/m² | - |
| 1778047205 | 19.44° C | 81% | 1015.1 hPa | 0 mm | 2.24 m/s, 261° | 0 W/m² | - |
* Rain latest hour (hover to see other rain measurements)
** Current wind speed in m/s (hover to see current wind gust speed)